| time (UTC) | temp F | wind direction | speed MPH | gust MPH | rain 1hr in | rain 24hr in | rain mn in | humidity % | barometer mb |
| 20260502130107 | 44 | 247 | 2.0 | 5.0 | 0.00 | 0.00 | 0.00 | 80 | 1016.3 |
| 20260502123117 | 43 | 0 | 0.0 | 0.0 | 0.00 | 0.00 | 0.00 | 88 | 1016.2 |
| 20260502121559 | 41 | 0 | 0.0 | 0.0 | 0.00 | 0.00 | 0.00 | 94 | 1016.2 |
| 20260502120119 | 39 | 0 | 0.0 | 0.0 | 0.00 | 0.00 | 0.00 | 96 | 1016.2 |
| 20260502114605 | 38 | 0 | 0.0 | 3.0 | 0.00 | 0.00 | 0.00 | 95 | 1016.3 |
| 20260502113116 | 37 | 98 | 1.0 | 2.0 | 0.00 | 0.00 | 0.00 | 96 | 1016.2 |
| 20260502111558 | 36 | 98 | 1.0 | 2.0 | 0.00 | 0.00 | 0.00 | 95 | 1016.1 |
| 20260502110057 | 35 | 0 | 0.0 | 0.0 | 0.00 | 0.00 | 0.00 | 94 | 1015.9 |
| 20260502104559 | 34 | 0 | 0.0 | 0.0 | 0.00 | 0.00 | 0.00 | 94 | 1016.2 |
| 20260502103056 | 35 | 0 | 0.0 | 1.0 | 0.00 | 0.00 | 0.00 | 93 | 1016.3 |
| 20260502101602 | 35 | 0 | 0.0 | 1.0 | 0.00 | 0.00 | 0.00 | 94 | 1016.3 |
| 20260502100104 | 35 | 0 | 0.0 | 2.0 | 0.00 | 0.00 | 0.00 | 93 | 1016.3 |
| 20260502090104 | 35 | 0 | 0.0 | 0.0 | 0.00 | 0.00 | 0.00 | 93 | 1016.2 |
| 20260502070112 | 37 | 0 | 0.0 | 0.0 | 0.00 | 0.00 | 0.00 | 88 | 1015.7 |
| 20260502064557 | 38 | 0 | 0.0 | 0.0 | 0.00 | 0.00 | 0.00 | 87 | 1015.9 |
| 20260502063100 | 39 | 0 | 0.0 | 0.0 | 0.00 | 0.00 | 0.00 | 86 | 1016.3 |
| 20260502061557 | 39 | 107 | 1.0 | 2.0 | 0.00 | 0.00 | 0.00 | 85 | 1016.3 |
| 20260502060058 | 41 | 118 | 0.0 | 0.0 | 0.00 | 0.00 | 0.00 | 81 | 1016.3 |
| 20260502054558 | 42 | 0 | 0.0 | 2.0 | 0.00 | 0.00 | 0.00 | 79 | 1016.4 |
| 20260502053100 | 44 | 0 | 0.0 | 3.0 | 0.00 | 0.00 | 0.00 | 76 | 1016.5 |
| 20260502051603 | 44 | 257 | 1.0 | 6.0 | 0.00 | 0.00 | 0.00 | 75 | 1016.3 |
| 20260502050100 | 45 | 263 | 2.0 | 4.0 | 0.00 | 0.00 | 0.00 | 74 | 1016.5 |
| 20260502044621 | 45 | 263 | 2.0 | 6.0 | 0.00 | 0.00 | 0.00 | 73 | 1016.4 |
| 20260502043103 | 46 | 287 | 3.0 | 6.0 | 0.00 | 0.00 | 0.00 | 71 | 1016.5 |
| 20260502041559 | 46 | 275 | 2.0 | 5.0 | 0.00 | 0.00 | 0.00 | 72 | 1016.6 |
| 20260502040105 | 46 | 273 | 2.0 | 8.0 | 0.00 | 0.00 | 0.00 | 72 | 1016.4 |
| 20260502034558 | 46 | 264 | 1.0 | 5.0 | 0.00 | 0.00 | 0.00 | 73 | 1016.4 |
| 20260502033057 | 47 | 281 | 1.0 | 7.0 | 0.00 | 0.00 | 0.00 | 70 | 1016.4 |
| 20260502031556 | 47 | 296 | 0.0 | 9.0 | 0.00 | 0.00 | 0.00 | 70 | 1016.3 |
| 20260502024558 | 48 | 338 | 5.0 | 12.0 | 0.00 | 0.00 | 0.00 | 72 | 1016.4 |
| 20260502023059 | 48 | 282 | 7.0 | 16.0 | 0.00 | 0.00 | 0.00 | 73 | 1015.7 |
| 20260502021558 | 49 | 212 | 3.0 | 9.0 | 0.00 | 0.00 | 0.00 | 77 | 1015.7 |
| 20260502020058 | 49 | 219 | 3.0 | 8.0 | 0.00 | 0.00 | 0.00 | 76 | 1015.4 |
| 20260502014600 | 50 | 250 | 0.0 | 4.0 | 0.00 | 0.00 | 0.00 | 76 | 1015.2 |
| 20260502013058 | 50 | 0 | 0.0 | 4.0 | 0.00 | 0.00 | 0.00 | 76 | 1014.9 |
| 20260502011558 | 50 | 0 | 0.0 | 3.0 | 0.00 | 0.00 | 0.00 | 76 | 1014.7 |
| 20260502010057 | 50 | 35 | 1.0 | 2.0 | 0.00 | 0.00 | 0.00 | 76 | 1014.6 |
| 20260502004602 | 50 | 0 | 0.0 | 0.0 | 0.00 | 0.00 | 0.00 | 79 | 1014.6 |
| 20260502003100 | 50 | 0 | 0.0 | 0.0 | 0.00 | 0.00 | 0.00 | 76 | 1014.3 |
| 20260502001559 | 50 | 0 | 0.0 | 4.0 | 0.00 | 0.00 | 0.00 | 74 | 1014.0 |
| 20260501234608 | 51 | 245 | 1.0 | 5.0 | 0.00 | 0.00 | 0.00 | 72 | 1013.4 |
| 20260501233111 | 51 | 260 | 8.0 | 14.0 | 0.00 | 0.00 | 0.00 | 70 | 1013.3 |
| 20260501231559 | 52 | 288 | 6.0 | 13.0 | 0.00 | 0.00 | 0.00 | 68 | 1013.3 |
| 20260501230106 | 53 | 200 | 2.0 | 11.0 | 0.00 | 0.00 | 0.00 | 70 | 1012.9 |
| 20260501224602 | 54 | 320 | 5.0 | 10.0 | 0.00 | 0.00 | 0.00 | 69 | 1012.9 |
| 20260501223057 | 55 | 282 | 4.0 | 11.0 | 0.00 | 0.00 | 0.00 | 70 | 1012.7 |
| 20260501221600 | 55 | 292 | 8.0 | 16.0 | 0.00 | 0.00 | 0.00 | 67 | 1012.6 |
| 20260501220108 | 56 | 259 | 5.0 | 17.0 | 0.00 | 0.00 | 0.00 | 68 | 1012.4 |
| 20260501214604 | 57 | 276 | 6.0 | 14.0 | 0.00 | 0.00 | 0.00 | 65 | 1012.2 |
| 20260501213105 | 58 | 245 | 5.0 | 15.0 | 0.00 | 0.00 | 0.00 | 61 | 1011.9 |
| 20260501211607 | 60 | 322 | 7.0 | 14.0 | 0.00 | 0.00 | 0.00 | 56 | 1011.4 |
| 20260501210057 | 61 | 239 | 10.0 | 16.0 | 0.00 | 0.00 | 0.00 | 50 | 1011.2 |
| 20260501204557 | 61 | 209 | 6.0 | 14.0 | 0.00 | 0.00 | 0.00 | 46 | 1010.8 |
| 20260501203107 | 63 | 209 | 3.0 | 10.0 | 0.00 | 0.00 | 0.00 | 43 | 1010.5 |
| 20260501201602 | 62 | 246 | 5.0 | 17.0 | 0.00 | 0.00 | 0.00 | 41 | 1010.4 |
| 20260501200058 | 64 | 264 | 5.0 | 12.0 | 0.00 | 0.00 | 0.00 | 39 | 1010.3 |
| 20260501194618 | 64 | 232 | 4.0 | 13.0 | 0.00 | 0.00 | 0.00 | 36 | 1010.1 |
| 20260501193058 | 65 | 112 | 1.0 | 14.0 | 0.00 | 0.00 | 0.00 | 34 | 1010.2 |
| 20260501191559 | 65 | 173 | 3.0 | 10.0 | 0.00 | 0.00 | 0.00 | 34 | 1010.7 |
| 20260501190100 | 64 | 304 | 5.0 | 11.0 | 0.00 | 0.00 | 0.00 | 35 | 1010.8 |
| 20260501184600 | 65 | 98 | 9.0 | 20.0 | 0.00 | 0.00 | 0.00 | 34 | 1010.8 |
| 20260501183100 | 65 | 221 | 6.0 | 15.0 | 0.00 | 0.00 | 0.00 | 35 | 1010.9 |
| 20260501181628 | 64 | 236 | 4.0 | 12.0 | 0.00 | 0.00 | 0.00 | 36 | 1010.8 |
| 20260501180100 | 64 | 239 | 2.0 | 11.0 | 0.00 | 0.00 | 0.00 | 36 | 1011.0 |
| 20260501174600 | 63 | 239 | 5.0 | 11.0 | 0.00 | 0.00 | 0.00 | 42 | 1011.3 |
| 20260501173113 | 62 | 216 | 2.0 | 12.0 | 0.00 | 0.00 | 0.00 | 41 | 1011.4 |
| 20260501171555 | 61 | 105 | 3.0 | 11.0 | 0.00 | 0.00 | 0.00 | 45 | 1011.4 |
| 20260501170058 | 61 | 30 | 2.0 | 9.0 | 0.00 | 0.00 | 0.00 | 39 | 1011.6 |
| 20260501164557 | 61 | 240 | 4.0 | 11.0 | 0.00 | 0.00 | 0.00 | 43 | 1011.8 |
| 20260501163100 | 61 | 92 | 3.0 | 8.0 | 0.00 | 0.00 | 0.00 | 44 | 1012.1 |
| 20260501161557 | 60 | 69 | 5.0 | 14.0 | 0.00 | 0.00 | 0.00 | 44 | 1012.4 |
| 20260501160100 | 59 | 91 | 2.0 | 8.0 | 0.00 | 0.00 | 0.00 | 46 | 1012.7 |
| 20260501154558 | 59 | 258 | 1.0 | 9.0 | 0.00 | 0.00 | 0.00 | 47 | 1012.7 |
| 20260501153118 | 58 | 100 | 4.0 | 10.0 | 0.00 | 0.00 | 0.00 | 47 | 1013.0 |
| 20260501151601 | 56 | 217 | 2.0 | 6.0 | 0.00 | 0.00 | 0.00 | 50 | 1013.4 |
| 20260501150113 | 56 | 38 | 3.0 | 10.0 | 0.00 | 0.00 | 0.00 | 47 | 1013.6 |
| 20260501144601 | 55 | 130 | 2.0 | 9.0 | 0.00 | 0.00 | 0.00 | 50 | 1013.6 |
| 20260501143058 | 54 | 288 | 3.0 | 7.0 | 0.00 | 0.00 | 0.00 | 53 | 1013.8 |